Simultaneous Nadir Overpasses (SNOs) Predictions

Prediction of SNOs between GOES-15 and LANDSAT-8 Satellite Orbit:

Table of predicted SNOs for the next 14.0 days since TLE Epoch: 4/27/2024
Index Date Time (GOES-15) GOES-15 Lat,Lon LANDSAT-8 Lat,Lon Distance(km) Time Diff (sec)
1 04/28/2024 05:58:36 -0.15, 61.40 -0.59, 63.51 239.84 80
2 04/28/2024 18:20:00 0.15, 61.38 -0.49, 58.32 348.10 80
3 04/30/2024 18:07:46 0.15, 61.42 0.14, 61.28 15.48 80
4 05/02/2024 17:52:51 0.16, 61.45 0.76, 64.25 317.57 80
5 05/03/2024 06:16:45 -0.16, 61.49 0.37, 59.10 272.84 80
6 05/05/2024 06:01:50 -0.16, 61.53 -0.29, 62.06 60.42 80
7 05/07/2024 05:49:33 -0.16, 61.58 -0.88, 65.04 393.48 80
8 05/07/2024 18:13:36 0.16, 61.56 -0.21, 59.85 194.33 80
9 05/09/2024 17:58:39 0.16, 61.61 0.43, 62.82 138.31 80
10 05/10/2024 06:22:33 -0.16, 61.65 0.67, 57.67 452.19 80
